Temp_Advection
nan nan nan nan nan nan nan nan nan nan nan nan nan nan nan nan nan nan nan nan nan nan nan nan nan nan nan nan nan nan nan nan nan nan nan nan nan nan
nan -0 -0 -0 -0 -1 -0 -0 -1 -1 -2 -2 -3 -4 -2 -0 -2 1 1 0 0 0 -0 -0 0 -0 0 1 1 0 -0 1 1 0 0 0 0 nan
nan -0 -0 -0 -0 -1 -0 -0 -1 -1 -1 -2 -3 -4 -2 -1 -3 -3 -2 0 -0 0 0 0 -0 0 1 1 0 0 0 1 1 0 -0 0 0 nan
nan -0 -0 -0 -0 -0 -0 -1 -1 -0 -1 -2 -2 -3 -2 0 -3 -6 -2 -1 -0 -0 -0 -0 0 -0 0 1 1 1 1 1 1 -0 -0 -0 -1 nan
nan -0 -0 -0 -0 -1 -0 -1 -1 -0 -1 -1 -2 -2 -1 -2 -3 -2 -4 -2 -1 -2 -0 0 -1 -0 1 1 1 0 -1 -1 -0 -0 -1 -1 -1 nan
nan -0 -0 -0 -0 -0 -1 -1 -1 -0 -0 -1 -1 -1 -1 -1 -2 -4 -3 -2 -3 0 -0 -0 -0 0 1 0 0 -0 -2 0 1 -0 -0 0 0 nan
nan -0 -0 -0 -1 -1 -1 -1 -0 -0 -1 -1 -1 -1 -1 -1 -1 -2 -3 -4 -2 -3 -1 1 0 1 -0 1 1 0 1 2 0 0 1 0 0 nan
nan -0 -0 -0 -0 -0 -0 -0 -1 -1 -1 -1 -1 -1 -0 -0 -1 -1 -1 -2 -4 -2 1 1 0 1 -0 1 0 -0 -0 -0 -0 0 1 -0 -0 nan
nan 0 0 0 0 -0 -1 -1 -1 -1 -1 -1 -1 -1 -0 -0 -1 -1 -1 -2 -2 -2 -4 -2 0 -1 -1 -1 -1 -1 -0 -1 0 2 -0 -0 0 nan
nan 0 0 -0 0 -0 -0 -0 -0 -0 -1 -1 -1 -1 -1 -0 -0 -0 -0 -1 -2 -1 -2 -4 -2 -0 -1 -1 -1 0 0 0 1 -0 -1 1 1 nan
nan 0 0 0 -0 -0 -0 -0 -0 -0 -1 -0 -0 -0 -0 -0 -0 -1 -1 -1 -3 -3 -1 -2 -2 -1 -1 -1 -0 0 1 1 -0 -1 0 1 0 nan
nan 0 0 0 -0 -0 -0 -0 -0 -1 -0 -0 -0 -1 -1 -1 -0 -1 -1 -1 -1 -3 -3 -1 -1 -1 -1 1 -0 0 1 0 -0 0 0 0 0 nan
nan 0 0 0 0 0 -0 -0 -0 -0 -0 -0 -1 -1 -1 -0 -0 -0 -0 -1 -1 -2 -1 -2 -0 1 -5 0 2 1 1 0 -0 0 0 0 1 nan
nan -0 -0 -0 0 0 -0 -0 -0 -0 -0 -1 -1 -1 -0 -0 -0 -0 -0 -1 -1 -0 -1 -1 -1 -1 -1 -4 0 2 1 -0 0 0 0 1 1 nan
nan -0 -1 -1 -0 -0 -0 0 -0 -0 -1 -1 -1 -0 -0 -0 -0 -0 -0 0 -0 -1 -0 -0 -1 -1 -1 -1 -2 0 1 -0 -0 0 1 1 1 nan
nan -0 -0 -0 -0 -0 -1 -1 -0 -0 -0 -0 -0 -0 -0 -0 -0 0 0 0 -0 -1 -1 -1 -1 -1 -1 -1 -1 -1 -0 0 -0 0 1 2 0 nan
nan -0 -0 -0 -0 -0 -0 -0 -0 0 0 0 0 0 -0 -0 -0 0 0 0 0 -0 -1 -1 -0 -1 -2 -1 -1 -1 -1 0 -0 0 2 -0 -1 nan
nan -0 -0 -0 -0 -0 -0 -1 -0 -0 -0 0 -0 -0 -0 0 0 0 0 0 -0 -0 -0 -1 -1 -1 -1 -2 -2 -1 -1 -1 -0 1 0 0 -0 nan
nan -0 -0 -0 -0 -0 -0 -0 -0 -0 -0 -0 -0 -0 0 0 0 -0 -0 -0 -0 -0 -0 -0 -1 -1 -1 -3 -3 -0 -1 -1 -0 0 0 -1 0 nan
nan -0 -0 -0 -0 -0 -0 -0 -0 -0 -0 -0 -0 -0 -0 0 -0 -0 -1 -0 -0 -0 -0 -0 -1 -1 -1 -1 -1 -2 -1 -1 -1 -0 -0 0 1 nan
nan -0 -0 -0 -0 -0 -0 -0 -0 -0 -0 -0 -0 -0 -0 -0 -0 -0 -0 -1 -1 -1 -1 -0 -1 -1 -1 -2 -1 -1 -1 -1 -0 0 0 0 0 nan
nan -0 -0 -0 -0 -0 -0 -0 -0 -0 -0 -0 -0 -0 -0 -0 -0 -0 -0 -0 -1 -1 -1 -0 -0 -1 -1 -1 -2 -1 -1 -0 -0 -0 0 -0 0 nan
nan nan nan nan nan nan nan nan nan nan nan nan nan nan nan nan nan nan nan nan nan nan nan nan nan nan nan nan nan nan nan nan nan nan nan nan nan nan
Wind_Speed
25 25 26 25 25 25 27 25 27 27 37 23 22 21 17 16 27 33 45 52 61 58 60 55 51 55 59 57 53 49 46 43 41 42 43 40 39 38
26 25 26 25 25 25 26 27 26 30 38 32 32 36 34 37 22 17 31 41 52 58 58 58 53 51 60 62 58 51 48 45 43 42 43 42 40 39
27 28 27 26 27 26 25 26 28 29 36 40 42 43 45 49 41 29 19 29 38 59 60 60 52 48 50 64 59 54 48 49 46 44 43 41 40 40
27 27 28 26 26 26 27 26 28 28 32 38 34 39 38 45 46 39 19 18 31 43 56 61 54 51 47 56 54 58 55 54 49 47 41 40 40 38
29 28 28 27 28 29 28 28 28 28 29 32 32 32 35 38 41 39 35 19 17 39 52 63 59 55 52 50 54 62 54 53 52 49 45 39 37 38
29 29 29 28 29 28 27 27 27 28 28 28 33 28 30 30 32 37 34 26 19 28 45 62 62 61 56 51 55 61 60 57 59 53 46 42 39 38
29 29 29 28 28 28 27 27 27 28 28 26 31 23 22 22 20 27 32 32 26 21 34 56 63 66 59 57 58 61 64 64 61 58 52 46 42 42
28 27 27 27 29 30 31 32 31 27 26 25 26 26 22 17 18 18 25 32 28 16 8 25 53 63 65 64 59 60 62 74 64 61 58 52 44 45
33 30 28 28 27 28 27 30 33 34 34 30 31 29 29 24 20 20 23 28 33 33 27 16 23 45 60 71 67 62 60 63 67 69 61 57 49 50
26 28 28 27 26 26 25 26 27 28 32 33 35 32 29 26 24 23 22 27 35 34 25 22 16 29 54 64 66 62 60 61 61 61 64 60 57 50
24 26 28 29 29 28 30 29 27 29 25 27 30 31 30 33 31 31 31 27 33 37 29 22 21 20 36 58 68 61 58 61 62 55 59 58 56 50
22 23 22 26 26 27 28 30 30 28 26 24 26 26 26 29 29 28 27 29 25 28 31 19 24 12 16 47 63 58 51 59 59 58 59 49 60 52
18 23 22 22 22 26 29 28 26 23 23 23 23 23 23 20 22 22 25 26 29 32 28 24 24 30 28 5 48 53 51 51 55 57 59 56 58 55
17 16 14 18 22 21 21 26 29 29 29 27 26 25 25 24 20 21 20 22 27 27 24 25 32 32 35 25 11 42 50 51 50 55 61 59 60 57
18 20 17 19 21 19 19 26 24 26 28 30 31 30 29 23 22 19 19 22 23 21 21 23 31 34 31 26 22 7 39 52 53 52 62 63 62 57
21 18 14 13 12 15 17 20 25 30 28 28 29 30 24 24 25 27 28 29 30 28 28 32 32 28 24 25 20 12 19 41 54 57 56 61 59 61
18 14 13 12 11 10 9 11 13 24 27 25 24 24 25 27 30 30 30 31 33 31 31 33 30 32 35 27 18 20 15 27 37 47 52 53 59 62
13 13 13 14 13 12 11 10 11 13 16 21 27 28 28 27 28 29 28 28 31 32 33 32 27 26 24 36 33 30 27 19 33 40 43 49 56 59
14 14 15 15 15 14 13 11 11 11 13 16 20 23 27 30 34 36 35 30 28 32 31 29 27 24 25 30 40 37 36 29 25 33 42 44 40 59
15 17 17 17 17 16 15 14 13 12 12 13 16 19 22 24 25 28 29 30 31 29 29 29 32 32 34 30 23 32 38 32 29 28 33 45 47 44
19 18 18 18 18 18 17 16 15 14 13 14 15 17 19 22 25 26 29 30 28 30 31 35 38 34 31 30 27 31 32 30 26 25 31 40 49 50
20 21 19 18 18 19 19 19 19 18 17 16 16 16 18 20 25 28 30 30 30 32 36 35 30 30 30 33 39 27 37 32 29 28 28 32 47 48
22 22 21 20 20 20 21 21 21 21 20 21 20 20 22 25 25 28 31 33 34 34 33 34 32 33 36 36 34 35 37 38 37 31 30 34 39 39
Wind_Direction
266 265 263 263 261 260 260 261 263 279 289 280 276 254 249 231 201 216 219 231 232 231 225 226 227 227 225 224 218 218 219 219 218 218 215 215 217 217
266 263 261 261 261 260 259 262 259 259 271 275 266 264 257 270 274 211 218 220 225 229 222 225 225 224 217 222 216 215 218 219 217 217 216 214 215 216
262 261 260 259 259 259 257 255 255 254 264 274 274 277 270 273 284 282 262 216 216 229 219 220 225 225 224 219 219 213 218 221 220 216 216 216 214 215
262 262 260 259 257 258 256 255 256 259 261 272 277 276 278 277 281 280 274 259 221 224 220 218 219 222 224 224 223 218 212 220 221 220 216 215 216 213
260 258 257 255 255 254 254 255 256 259 261 266 276 275 278 280 286 278 279 279 257 216 224 221 218 222 222 227 226 209 215 218 221 223 220 217 215 214
259 257 254 253 252 251 251 251 255 259 263 263 268 275 276 282 284 281 284 279 276 214 223 225 221 220 222 227 223 223 226 226 221 221 222 218 213 211
260 260 257 254 251 249 247 249 252 254 256 262 267 272 274 283 286 286 283 286 281 310 221 225 224 220 222 225 226 226 222 217 219 222 222 219 215 210
258 258 258 256 253 252 250 249 247 248 253 257 265 273 270 275 289 287 283 282 293 273 167 202 221 218 220 223 224 226 227 213 216 217 220 219 213 212
262 259 259 258 256 255 251 250 250 248 249 253 259 264 277 283 283 280 283 281 272 277 295 269 212 221 227 225 225 224 223 225 216 220 220 221 212 210
258 258 259 257 253 250 250 251 251 249 246 245 248 257 258 263 268 267 267 277 275 274 283 293 239 214 223 224 220 222 223 221 226 221 220 224 214 210
258 255 254 254 251 248 248 249 252 253 251 250 252 252 253 254 256 262 265 277 278 275 274 279 260 264 228 220 219 223 222 222 220 224 223 218 216 214
270 264 259 253 255 248 246 247 249 253 253 254 256 258 254 252 251 244 245 249 259 273 267 263 274 10 240 202 213 218 223 219 218 219 218 219 211 213
301 280 281 277 265 250 248 249 248 252 254 255 254 255 254 245 248 251 243 240 246 250 245 247 253 273 302 192 204 216 215 215 217 217 220 221 217 215
321 306 299 289 272 262 255 249 253 256 254 252 252 255 253 255 249 246 250 249 245 254 266 258 262 264 275 303 207 209 221 217 214 220 219 221 216 217
325 318 302 278 268 257 265 251 245 245 245 250 258 259 254 256 260 253 262 266 262 247 254 257 259 266 268 277 279 202 202 220 217 224 217 211 214 217
327 331 327 310 293 275 274 261 244 243 245 248 252 256 264 250 260 264 267 269 271 267 254 250 249 247 258 266 274 269 219 204 219 218 223 219 220 223
327 337 346 348 340 322 293 266 241 233 239 242 246 251 257 263 266 269 268 268 268 269 266 259 254 258 248 244 251 251 259 207 214 222 218 223 224 223
338 348 350 351 350 345 335 315 288 268 250 246 246 249 253 256 259 259 260 259 262 265 265 262 258 258 259 248 238 244 253 238 215 213 222 225 227 226
355 352 350 349 347 346 341 331 316 297 278 265 259 256 255 257 258 256 252 254 250 258 261 262 259 258 249 243 243 242 247 244 227 225 223 228 239 230
354 350 348 348 346 343 341 336 327 316 304 285 271 265 262 259 258 257 254 252 244 246 255 261 254 240 241 239 237 241 238 240 241 232 231 225 224 233
350 350 346 344 343 340 339 335 330 323 316 301 284 275 270 267 265 263 259 255 256 255 247 244 251 249 246 248 245 236 238 238 244 243 239 232 226 226
348 348 347 343 341 340 337 334 331 328 323 315 306 292 280 272 266 265 261 254 253 246 247 250 244 242 238 238 235 238 232 228 231 239 242 247 230 223
351 350 349 346 344 342 339 335 330 326 325 322 308 296 293 284 277 270 263 257 251 250 249 246 242 240 236 232 235 232 229 227 226 228 234 234 234 237
Height
1420 1418 1417 1415 1414 1414 1412 1411 1408 1401 1387 1386 1387 1389 1383 1385 1384 1391 1398 1406 1412 1420 1430 1437 1441 1446 1451 1459 1464 1472 1479 1485 1491 1496 1502 1505 1511 1516
1412 1410 1409 1408 1407 1406 1405 1403 1402 1399 1390 1382 1385 1383 1382 1381 1383 1378 1387 1389 1397 1407 1416 1425 1430 1434 1439 1446 1457 1462 1472 1478 1484 1489 1496 1499 1504 1509
1404 1401 1400 1400 1399 1398 1398 1397 1395 1394 1387 1379 1375 1376 1378 1375 1373 1381 1380 1381 1385 1394 1403 1413 1420 1424 1430 1439 1445 1453 1461 1472 1477 1483 1488 1493 1497 1502
1395 1393 1391 1392 1390 1390 1390 1389 1387 1386 1384 1377 1375 1371 1371 1371 1373 1375 1365 1373 1374 1380 1390 1399 1407 1415 1421 1429 1434 1444 1451 1461 1469 1476 1480 1485 1491 1494
1385 1384 1384 1384 1382 1382 1382 1381 1380 1379 1378 1375 1371 1370 1363 1365 1366 1363 1365 1356 1364 1370 1379 1388 1395 1405 1413 1420 1427 1430 1441 1451 1459 1467 1473 1477 1483 1487
1375 1374 1374 1374 1374 1374 1374 1374 1374 1372 1371 1369 1366 1369 1368 1367 1365 1359 1353 1356 1357 1361 1366 1374 1384 1393 1401 1409 1417 1426 1432 1439 1450 1458 1465 1470 1475 1481
1366 1365 1364 1364 1365 1366 1367 1367 1367 1366 1365 1363 1359 1363 1361 1360 1361 1355 1349 1348 1352 1357 1353 1362 1372 1381 1388 1397 1405 1412 1419 1430 1438 1449 1456 1462 1468 1474
1358 1358 1357 1356 1356 1357 1358 1358 1359 1359 1358 1358 1355 1353 1358 1359 1356 1354 1353 1359 1351 1351 1345 1348 1359 1362 1374 1383 1390 1399 1408 1413 1428 1436 1446 1452 1459 1466
1349 1349 1349 1348 1348 1348 1348 1349 1349 1350 1351 1353 1351 1349 1342 1342 1345 1347 1351 1348 1347 1349 1348 1340 1346 1352 1362 1370 1378 1386 1396 1407 1414 1424 1434 1441 1448 1456
1342 1341 1340 1340 1340 1341 1341 1341 1340 1341 1342 1344 1344 1346 1346 1345 1343 1341 1345 1344 1341 1342 1347 1336 1341 1342 1351 1356 1363 1373 1384 1394 1401 1409 1422 1431 1438 1446
1333 1332 1331 1331 1331 1332 1333 1333 1333 1333 1336 1337 1337 1340 1342 1342 1345 1346 1337 1337 1337 1336 1335 1337 1339 1338 1339 1341 1351 1363 1374 1384 1393 1401 1409 1418 1425 1437
1327 1324 1322 1322 1322 1323 1324 1325 1326 1327 1329 1330 1330 1331 1334 1334 1335 1338 1339 1342 1338 1334 1336 1341 1336 1337 1334 1330 1339 1352 1362 1371 1382 1391 1401 1409 1417 1427
1321 1319 1317 1316 1315 1316 1317 1317 1318 1321 1322 1323 1324 1324 1327 1330 1329 1329 1330 1329 1331 1330 1331 1332 1330 1331 1339 1323 1328 1341 1351 1360 1371 1381 1390 1398 1407 1415
1318 1315 1312 1311 1309 1309 1309 1310 1312 1314 1315 1316 1317 1316 1317 1319 1323 1326 1321 1322 1326 1326 1324 1325 1326 1330 1333 1326 1325 1331 1340 1350 1359 1367 1376 1387 1397 1406
1316 1311 1307 1304 1303 1303 1302 1303 1305 1307 1308 1309 1308 1308 1310 1311 1310 1310 1309 1317 1319 1314 1315 1319 1324 1325 1330 1328 1326 1325 1334 1338 1347 1355 1364 1372 1381 1391
1312 1308 1304 1300 1298 1297 1296 1295 1296 1298 1300 1301 1301 1302 1303 1303 1301 1301 1303 1304 1303 1303 1310 1315 1318 1320 1320 1320 1321 1319 1327 1329 1335 1344 1353 1363 1373 1380
1310 1306 1302 1299 1296 1293 1292 1290 1290 1291 1293 1294 1295 1296 1296 1296 1296 1296 1296 1296 1297 1299 1303 1307 1309 1312 1310 1315 1314 1316 1320 1322 1329 1336 1347 1354 1359 1367
1309 1305 1302 1298 1295 1292 1290 1288 1286 1286 1286 1287 1288 1289 1288 1289 1291 1293 1294 1294 1294 1293 1300 1301 1304 1308 1306 1304 1309 1312 1315 1318 1325 1330 1337 1345 1350 1356
1307 1304 1301 1297 1294 1291 1288 1286 1284 1283 1282 1282 1282 1282 1281 1281 1281 1283 1288 1289 1288 1290 1291 1293 1293 1295 1297 1294 1299 1307 1312 1316 1320 1326 1330 1334 1339 1345
1306 1303 1299 1296 1292 1289 1286 1284 1282 1280 1278 1277 1276 1275 1274 1274 1273 1272 1272 1278 1285 1286 1280 1279 1282 1286 1288 1294 1296 1299 1308 1313 1317 1319 1323 1327 1331 1338
1305 1301 1298 1294 1291 1287 1284 1281 1278 1276 1274 1272 1271 1269 1268 1268 1266 1265 1264 1264 1265 1268 1271 1274 1272 1278 1286 1292 1291 1291 1297 1302 1307 1311 1316 1321 1324 1329
1304 1300 1296 1292 1288 1285 1281 1277 1274 1271 1269 1267 1265 1263 1262 1260 1259 1258 1257 1257 1258 1259 1260 1264 1271 1275 1278 1278 1277 1282 1289 1294 1302 1307 1309 1312 1318 1319
1302 1298 1294 1290 1286 1282 1278 1274 1270 1266 1263 1260 1258 1256 1254 1251 1250 1248 1247 1248 1248 1249 1252 1255 1258 1262 1267 1271 1273 1278 1282 1286 1294 1296 1301 1307 1314 1318